This demonstration page uses our WeatherBlox Daily Observations layout. Learn more.

40.92945, -100.16068

Hourly Observations for January 24, 2018

Temp ( °F °C ) Dew Point ( °F °C ) Humidity (%) Winds ( mph kmh ) Pressure ( in mb ) Visibility ( mi km ) Precip ( " mm )
12:15 am 00:15 Clear 21 -6.1 16 -8.8 81 81 NW 8 13 30.45 1031 10 16.0934 0 0
12:35 am 00:35 Clear 19 -7 15 -9.3 84 84 NW 7 11 30.45 1031 10 16.0934 0 0
12:55 am 00:55 Clear 19 -7.3 15 -9.6 84 84 WNW 9 15 30.45 1031 10 16.0934 0 0
1:15 am 01:15 Clear 20 -6.9 15 -9.3 83 83 WNW 13 20 30.45 1031 10 16.0934 0 0
1:35 am 01:35 Clear 19 -7.5 14 -10.1 82 82 W 10 17 30.45 1031 10 16.0934 0 0
1:55 am 01:55 Clear 18 -7.7 13 -10.3 82 82 WNW 8 13 30.45 1031 10 16.0934 0 0
2:15 am 02:15 Clear 17 -8.2 13 -10.5 84 84 WNW 8 13 30.45 1031 10 16.0934 0 0
2:35 am 02:35 Clear 15 -9.2 12 -11.2 86 86 W 5 7 30.48 1032 10 16.0934 0 0
2:55 am 02:55 Clear 16 -8.7 13 -10.7 86 86 W 9 15 30.48 1032 10 16.0934 0 0
3:15 am 03:15 Clear 17 -8.5 13 -10.7 84 84 WNW 8 13 30.45 1031 10 16.0934 0 0
3:35 am 03:35 Clear 15 -9.3 11 -11.5 84 84 NW 3 6 30.48 1032 10 16.0934 0 0
3:55 am 03:55 Clear 17 -8.6 13 -10.8 84 84 NW 8 13 30.48 1032 10 16.0934 0 0
4:15 am 04:15 Clear 15 -9.2 11 -11.5 84 84 NW 8 13 30.48 1032 10 16.0934 0 0
4:35 am 04:35 Clear 15 -9.7 11 -11.9 84 84 NW 7 11 30.48 1032 10 16.0934 0 0
4:55 am 04:55 Clear 14 -10.2 10 -12.4 84 84 NW 7 11 30.48 1032 10 16.0934 0 0
5:15 am 05:15 Clear 13 -10.6 9 -12.8 84 84 WNW 3 6 30.48 1032 10 16.0934 0 0
5:35 am 05:35 Clear 12 -11.1 8 -13.3 84 84 W 6 9 30.48 1032 10 16.0934 0 0
5:55 am 05:55 Clear 11 -11.5 8 -13.5 85 85 W 6 9 30.5 1033 10 16.0934 0 0
6:15 am 06:15 Clear 12 -11 9 -12.7 87 87 W 5 7 30.48 1032 10 16.0934 0 0
6:35 am 06:35 Clear 12 -11.3 8 -13.1 87 87 WNW 5 7 30.48 1032 10 16.0934 0 0
6:55 am 06:55 Clear 10 -12 7 -13.9 86 86 WNW 6 9 30.5 1033 10 16.0934 0 0
7:15 am 07:15 Clear 11 -11.6 8 -13.4 87 87 W 6 9 30.5 1033 10 16.0934 0 0
7:35 am 07:35 Clear 11 -11.6 8 -13.5 86 86 NW 6 9 30.5 1033 10 16.0934 0 0
7:55 am 07:55 Clear 11 -11.6 8 -13.4 87 87 WNW 5 7 30.5 1033 10 16.0934 0 0
8:15 am 08:15 Sunny 10 -12 7 -14 85 85 WNW 3 6 30.5 1033 10 16.0934 0 0
8:35 am 08:35 Sunny 11 -11.8 7 -13.7 86 86 WNW 3 6 30.48 1032 10 16.0934 0 0
8:55 am 08:55 Sunny 12 -10.9 9 -12.8 86 86 W 3 6 30.45 1031 10 16.0934 0 0
9:15 am 09:15 Sunny 14 -10 11 -11.7 88 88 W 3 6 30.45 1031 10 16.0934 0 0
9:35 am 09:35 Sunny 16 -8.8 13 -10.8 86 86 Calm 30.42 1030 10 16.0934 0 0
9:55 am 09:55 Sunny 17 -8.1 13 -10.8 81 81 NW 3 6 30.42 1030 10 16.0934 0 0
10:15 am 10:15 Sunny 19 -7.5 13 -10.5 79 79 Calm 30.42 1030 10 16.0934 0 0
10:35 am 10:35 Sunny 20 -6.4 14 -10 76 76 Calm 30.42 1030 10 16.0934 0 0
10:55 am 10:55 Sunny 22 -5.5 16 -9.1 76 76 Calm 30.39 1029 10 16.0934 0 0
11:15 am 11:15 Sunny 24 -4.6 17 -8.2 76 76 SW 3 6 30.39 1029 10 16.0934 0 0
11:35 am 11:35 Sunny 30 -1 19 -7.1 64 64 SW 8 13 30.33 1027 10 16.0934 0 0
11:55 am 11:55 Sunny 31 -0.3 20 -6.8 62 62 W 5 7 30.3 1026 10 16.0934 0 0
12:15 pm 12:15 Sunny 32 0 21 -6.3 63 63 WSW 7 11 30.3 1026 10 16.0934 0 0
12:35 pm 12:35 Sunny 33 0.6 22 -5.5 64 64 SW 7 11 30.27 1025 10 16.0934 0 0
12:55 pm 12:55 Sunny 35 1.5 22 -5.7 59 59 SW 10 17 30.24 1024 10 16.0934 0 0
1:15 pm 13:15 Sunny 35 1.6 22 -5.4 60 60 WSW 8 13 30.24 1024 10 16.0934 0 0
1:35 pm 13:35 Sunny 35 1.5 22 -5.3 61 61 SW 15 24 30.21 1023 10 16.0934 0 0
1:55 pm 13:55 Sunny 35 1.5 23 -4.9 63 63 SW 12 19 30.21 1023 10 16.0934 0 0
2:15 pm 14:15 Sunny 35 1.7 23 -4.8 62 62 SSW 10 17 30.18 1022 10 16.0934 0 0
2:35 pm 14:35 Sunny 35 1.8 24 -4.5 63 63 SW 10 17 30.18 1022 10 16.0934 0 0
2:55 pm 14:55 Sunny 35 1.8 24 -4.4 64 64 SW 9 15 30.18 1022 10 16.0934 0 0
3:15 pm 15:15 Sunny 36 2.1 24 -4.2 63 63 SW 8 13 30.18 1022 10 16.0934 0 0
3:35 pm 15:35 Sunny 36 2 24 -4.2 64 64 WSW 10 17 30.18 1022 10 16.0934 0 0
3:55 pm 15:55 Sunny 35 1.8 25 -4.1 65 65 SW 13 20 30.18 1022 10 16.0934 0 0
4:15 pm 16:15 Sunny 35 1.6 26 -3.5 69 69 SW 7 11 30.18 1022 10 16.0934 0 0
4:35 pm 16:35 Sunny 35 1.6 26 -3.5 69 69 WSW 5 7 30.18 1022 10 16.0934 0 0
4:55 pm 16:55 Sunny 35 1.4 25 -4 68 68 WSW 8 13 30.21 1023 10 16.0934 0 0
5:15 pm 17:15 Sunny 33 0.8 25 -4.1 70 70 Calm 30.21 1023 10 16.0934 0 0
5:35 pm 17:35 Sunny 33 0.7 24 -4.5 69 69 SW 7 11 30.21 1023 10 16.0934 0 0
5:55 pm 17:55 Clear 32 0.1 23 -4.8 70 70 WSW 5 7 30.21 1023 10 16.0934 0 0
6:15 pm 18:15 Clear 30 -0.9 23 -5.1 73 73 W 3 6 30.21 1023 10 16.0934 0 0
6:35 pm 18:35 Clear 30 -1.2 23 -5.1 75 75 Calm 30.21 1023 10 16.0934 0 0
6:55 pm 18:55 Clear 29 -1.7 22 -5.3 77 77 Calm 30.24 1024 10 16.0934 0 0
7:15 pm 19:15 Clear 29 -1.5 22 -5.3 76 76 WSW 3 6 30.24 1024 10 16.0934 0 0
7:35 pm 19:35 Clear 29 -1.6 22 -5.5 75 75 Calm 30.24 1024 10 16.0934 0 0
7:55 pm 19:55 Clear 30 -1.2 22 -5.6 72 72 Calm 30.21 1023 10 16.0934 0 0
8:15 pm 20:15 Clear 29 -1.8 22 -5.5 76 76 W 3 6 30.24 1024 10 16.0934 0 0
8:35 pm 20:35 Clear 24 -4.2 20 -6.5 84 84 W 3 6 30.21 1023 10 16.0934 0 0
8:55 pm 20:55 Clear 24 -4.6 20 -6.8 85 85 Calm 30.21 1023 10 16.0934 0 0
9:15 pm 21:15 Clear 23 -5 19 -7.2 85 85 Calm 30.24 1024 10 16.0934 0 0
9:35 pm 21:35 Clear 24 -4.5 20 -6.7 85 85 Calm 30.21 1023 10 16.0934 0 0
9:55 pm 21:55 Clear 23 -5.1 19 -7.1 86 86 W 3 6 30.24 1024 10 16.0934 0 0
10:15 pm 22:15 Clear 20 -6.4 17 -8.4 86 86 Calm 30.24 1024 10 16.0934 0 0
10:35 pm 22:35 Clear 20 -6.4 18 -8 89 89 Calm 30.24 1024 10 16.0934 0 0
10:55 pm 22:55 Clear 20 -6.5 17 -8.1 89 89 N 3 6 30.24 1024 10 16.0934 0 0
11:15 pm 23:15 Clear 20 -6.9 17 -8.3 90 90 N 3 6 30.24 1024 10 16.0934 0 0
11:35 pm 23:35 Clear 19 -7.5 16 -9.1 88 88 Calm 30.27 1025 10 16.0934 0 0
11:55 pm 23:55 Clear 20 -6.8 17 -8.2 90 90 WNW 3 6 30.24 1024 10 16.0934 0 0

Powered by AerisWeather